Wellsville, NY

8:30 PM EDT on October 19, 2017 (GMT -0400)
Wellsville Municipal-Tarantine

Weather History for KELZ - March, 2013

Change the Weather History Date:

Sunday, March 3, 2013

  Actual Average (KDSV) Record (KDSV)
Temperature  
Mean Temperature 19 °F -  
Max Temperature 21 °F 41 °F 70 °F (1991)
Min Temperature 17 °F 21 °F -3 °F (1962)
Degree Days  
Heating Degree Days 46    
Moisture  
Dew Point 13 °F    
Average Humidity 77    
Maximum Humidity 84    
Minimum Humidity 68    
Precipitation  
Precipitation 0.00 in - - ()
Sea Level Pressure  
Sea Level Pressure 29.82 in    
Wind  
Wind Speed 11 mph (NW)    
Max Wind Speed 22 mph    
Max Gust Speed 28 mph    
Visibility 4 miles    
Events Snow    
Averages and records for this station are not official NWS values.
T = Trace of Precipitation, MM = Missing Value Source: NWS Daily Summary

Daily Weather History Graph

Daily Weather History Graph

Search for Another Location

Airport or City:

Trip Planner

Search our weather history database for the weather conditions in past years. The results will help you decide how hot, cold, wet, or windy it might be!

Date:

Astronomy

Mar. 03, 2013 Rise Set
Actual Time 6:43 AM EST 6:04 PM EST
Civil Twilight 6:15 AM EST 6:32 PM EST
Nautical Twilight 5:43 AM EST 7:05 PM EST
Astronomical Twilight 5:10 AM EST 7:37 PM EST
Moon No Moon Rise 9:50 AM EST (3/3)
Length of Visible Light 12h 17m
Length of Day
11h 21m
Waning Gibbous, 64% of the Moon is Illuminated
Mar 3
Waning Gibbous
Mar 4
Last Quarter
Mar 11
New
Mar 19
First Quarter
Mar 27
Full

Hourly Weather History & Observations

Time (EST) Temp. Windchill Dew Point Humidity Pressure Visibility Wind Dir Wind Speed Gust Speed Precip Events Conditions
12:56 AM 19.0 °F 8.2 °F 14.0 °F 81% 29.86 in 5.0 mi WNW 9.2 mph - 0.00 in Snow Light Snow
1:12 AM 19.4 °F 8.6 °F 14.0 °F 80% 29.77 in 1.5 mi NW 9.2 mph - 0.00 in Snow Light Snow
1:18 AM 19.4 °F 7.2 °F 14.0 °F 80% 29.77 in 3.0 mi NW 11.5 mph - 0.00 in Snow Light Snow
1:56 AM 19.0 °F 6.8 °F 14.0 °F 81% 29.86 in 2.5 mi NW 11.5 mph - 0.00 in Snow Light Snow
2:18 AM 17.6 °F 5.7 °F 12.2 °F 79% 29.76 in 2.0 mi WNW 10.4 mph - 0.00 in Snow Light Snow
2:26 AM 17.6 °F 5.0 °F 12.2 °F 79% 29.75 in 2.5 mi WNW 11.5 mph - 0.00 in Snow Light Snow
2:35 AM 17.6 °F 4.3 °F 12.2 °F 79% 29.75 in 3.0 mi WNW 12.7 mph - 0.00 in Snow Light Snow
3:56 AM 18.0 °F 5.4 °F 12.9 °F 81% 29.84 in 4.0 mi WNW 11.5 mph - 0.00 in Snow Light Snow
4:51 AM 17.6 °F 6.4 °F 12.2 °F 79% 29.75 in 9.0 mi WNW 9.2 mph - 0.00 in Snow Light Snow
4:56 AM 17.1 °F 7.6 °F 12.9 °F 84% 29.85 in 9.0 mi WNW 6.9 mph - 0.00 in   Overcast
5:21 AM 17.6 °F 7.3 °F 12.2 °F 79% 29.75 in 4.0 mi WNW 8.1 mph - 0.00 in Snow Light Snow
5:56 AM 17.1 °F 4.3 °F 12.0 °F 81% 29.85 in 4.0 mi NW 11.5 mph - 0.00 in Snow Light Snow
6:46 AM 17.6 °F 5.7 °F 12.2 °F 79% 29.75 in 7.0 mi NW 10.4 mph - 0.00 in Snow Light Snow
6:56 AM 17.1 °F 5.0 °F 12.0 °F 81% 29.86 in 8.0 mi NW 10.4 mph - 0.00 in Snow Light Snow
7:33 AM 17.6 °F 4.3 °F 12.2 °F 79% 29.76 in 7.0 mi NW 12.7 mph - 0.00 in Snow Light Snow
7:56 AM 18.0 °F 7.7 °F 12.9 °F 81% 29.87 in 3.0 mi NW 8.1 mph - 0.00 in Snow Light Snow
8:22 AM 17.6 °F 3.7 °F 12.2 °F 79% 29.76 in 1.8 mi NW 13.8 mph - 0.00 in Snow Light Snow
8:35 AM 17.6 °F 6.4 °F 12.2 °F 79% 29.76 in 1.2 mi NW 9.2 mph - 0.00 in Snow Light Snow
8:56 AM 19.0 °F 7.5 °F 12.0 °F 74% 29.87 in 4.0 mi NW 10.4 mph - 0.00 in Snow Light Snow
9:09 AM 19.4 °F 8.6 °F 12.2 °F 74% 29.77 in 3.0 mi WNW 9.2 mph - 0.00 in Snow Light Snow
9:18 AM 19.4 °F 6.6 °F 12.2 °F 74% 29.77 in 2.5 mi NW 12.7 mph 16.1 mph 0.00 in Snow Light Snow
9:56 AM 19.9 °F 7.9 °F 12.9 °F 74% 29.86 in 3.0 mi WNW 11.5 mph - 0.00 in Snow Light Snow
10:56 AM 21.0 °F 9.9 °F 12.9 °F 71% 29.86 in 5.0 mi WNW 10.4 mph - 0.00 in Snow Light Snow
11:15 AM 19.4 °F 7.2 °F 12.2 °F 74% 29.76 in 2.0 mi NNW 11.5 mph - 0.00 in Snow Light Snow
11:23 AM 19.4 °F 7.9 °F 12.2 °F 74% 29.76 in 1.8 mi NNW 10.4 mph - 0.00 in Snow Light Snow
11:36 AM 21.2 °F 9.5 °F 12.2 °F 68% 29.76 in 3.0 mi NW 11.5 mph - 0.00 in Snow Light Snow
11:56 AM 21.0 °F 9.9 °F 12.9 °F 71% 29.86 in 4.0 mi WNW 10.4 mph - 0.00 in Snow Light Snow
12:56 PM 21.9 °F 9.8 °F 14.0 °F 72% 29.84 in 4.0 mi NW 12.7 mph - 0.00 in Snow Light Snow
1:56 PM 21.9 °F 11.0 °F 14.0 °F 72% 29.83 in 10.0 mi WNW 10.4 mph - 0.00 in   Overcast
2:56 PM 21.9 °F 10.4 °F 14.0 °F 72% 29.83 in 4.0 mi WNW 11.5 mph - 0.00 in Snow Light Snow
3:41 PM 21.2 °F 7.3 °F 14.0 °F 74% 29.74 in 2.0 mi WNW 16.1 mph - 0.00 in Snow Light Snow
3:56 PM 21.9 °F 8.7 °F 14.0 °F 72% 29.84 in 3.0 mi WNW 15.0 mph - 0.00 in Snow Light Snow
4:56 PM 19.9 °F 3.5 °F 12.9 °F 74% 29.86 in 5.0 mi WNW 21.9 mph 27.6 mph 0.00 in Snow Light Snow
5:56 PM 19.9 °F 6.2 °F 12.9 °F 74% 29.88 in 4.0 mi NW 15.0 mph - 0.00 in Snow Light Snow
6:56 PM 19.9 °F 7.9 °F 12.9 °F 74% 29.89 in 6.0 mi WNW 11.5 mph - 0.00 in Snow Light Snow
7:56 PM 19.9 °F 7.3 °F 12.9 °F 74% 29.90 in 3.0 mi WNW 12.7 mph 21.9 mph 0.00 in Snow Light Snow
8:56 PM 19.9 °F 6.7 °F 14.0 °F 78% 29.90 in 3.0 mi NW 13.8 mph - 0.00 in Snow Light Snow
9:07 PM 19.4 °F 7.2 °F 14.0 °F 80% 29.80 in 2.5 mi NW 11.5 mph 20.7 mph 0.00 in Snow Light Snow
9:17 PM 19.4 °F 5.5 °F 14.0 °F 80% 29.80 in 3.0 mi NW 15.0 mph 19.6 mph 0.00 in Snow Light Snow
9:56 PM 19.0 °F 5.0 °F 12.9 °F 77% 29.91 in 5.0 mi NW 15.0 mph - 0.00 in Snow Light Snow
10:04 PM 19.4 °F 5.0 °F 12.2 °F 74% 29.80 in 5.0 mi NW 16.1 mph 24.2 mph 0.00 in Snow Light Snow
10:42 PM 19.4 °F 7.2 °F 12.2 °F 74% 29.80 in 4.0 mi NW 11.5 mph - 0.00 in Snow Light Snow
10:56 PM 19.0 °F 5.0 °F 12.9 °F 77% 29.90 in 3.0 mi NW 15.0 mph - 0.00 in Snow Light Snow
11:09 PM 17.6 °F 3.2 °F 12.2 °F 79% 29.80 in 2.5 mi NW 15.0 mph - 0.00 in Snow Light Snow
11:41 PM 17.6 °F 2.7 °F 12.2 °F 79% 29.81 in 1.8 mi NW 16.1 mph - 0.00 in Snow Light Snow
11:51 PM 17.6 °F 4.3 °F 12.2 °F 79% 29.81 in 2.0 mi NW 12.7 mph - 0.00 in Snow Light Snow
11:56 PM 18.0 °F 4.8 °F 12.0 °F 78% 29.91 in 2.5 mi NW 12.7 mph - 0.00 in Snow Light Snow